Long Beach, CA

6:09 PM PST on December 15, 2017 (GMT -0800)
Long Beach

Weather History for KLGB - March, 2014

Change the Weather History Date:

Monday, March 17, 2014

  Actual Average Record
Temperature  
Mean Temperature 65 °F 60 °F  
Max Temperature 75 °F 69 °F 95 °F (1978)
Min Temperature 54 °F 51 °F 41 °F (1963)
Degree Days  
Heating Degree Days 0 6  
Month to date heating degree days 39 105  
Since 1 July heating degree days 617 996  
Cooling Degree Days 0 0  
Month to date cooling degree days 23 0  
Year to date cooling degree days 38 8  
Growing Degree Days 14 (Base 50)    
Moisture  
Dew Point 49 °F    
Average Humidity 56    
Maximum Humidity 83    
Minimum Humidity 29    
Precipitation  
Precipitation 0.00 in 0.05 in 1.17 in (1982)
Month to date precipitation 0.44 1.25  
Year to date precipitation 2.79 6.94  
Since 1 July precipitation 4.10  
Sea Level Pressure  
Sea Level Pressure 29.91 in    
Wind  
Wind Speed 6 mph (South)    
Max Wind Speed 18 mph    
Max Gust Speed 24 mph    
Visibility 9 miles    
Events      
T = Trace of Precipitation, MM = Missing Value Source: NWS Daily Summary

Daily Weather History Graph

Daily Weather History Graph

Search for Another Location

Airport or City:

Trip Planner

Search our weather history database for the weather conditions in past years. The results will help you decide how hot, cold, wet, or windy it might be!

Date:

Astronomy

Mar. 17, 2014 Rise Set
Actual Time 7:00 AM PDT 7:02 PM PDT
Civil Twilight 6:35 AM PDT 7:26 PM PDT
Nautical Twilight 6:06 AM PDT 7:55 PM PDT
Astronomical Twilight 5:37 AM PDT 8:25 PM PDT
Moon 8:18 PM PDT (3/17) 7:22 AM PDT (3/17)
Length of Visible Light 12h 51m
Length of Day
12h 01m
Full, 99% of the Moon is Illuminated
Mar 17
Full
Mar 23
Last Quarter
Mar 30
New
Apr 7
First Quarter
Apr 15
Full

Hourly Weather History & Observations

Time (PDT) Temp. Dew Point Humidity Pressure Visibility Wind Dir Wind Speed Gust Speed Precip Events Conditions
12:53 AM 62.1 °F 45.0 °F 53% 30.07 in 10.0 mi Calm Calm - N/A   Clear
1:53 AM 61.0 °F 45.0 °F 56% 30.05 in 10.0 mi Calm Calm - N/A   Clear
2:53 AM 59.0 °F 46.0 °F 62% 30.02 in 10.0 mi Calm Calm - N/A   Clear
3:53 AM 57.9 °F 46.0 °F 65% 30.01 in 10.0 mi Calm Calm - N/A   Clear
4:53 AM 55.9 °F 46.0 °F 69% 29.99 in 10.0 mi Calm Calm - N/A   Clear
5:09 AM 55.4 °F 46.4 °F 72% 29.98 in 10.0 mi Calm Calm - N/A   Scattered Clouds
5:18 AM 57.2 °F 46.4 °F 67% 29.98 in 10.0 mi Calm Calm - N/A   Mostly Cloudy
5:26 AM 55.4 °F 46.4 °F 72% 29.97 in 10.0 mi Calm Calm - N/A   Scattered Clouds
5:53 AM 55.0 °F 46.0 °F 72% 29.97 in 10.0 mi Calm Calm - N/A   Clear
6:53 AM 54.0 °F 48.0 °F 80% 29.96 in 9.0 mi ENE 3.5 mph - N/A   Clear
7:35 AM 55.4 °F 48.2 °F 77% 29.98 in 9.0 mi Calm Calm - N/A   Scattered Clouds
7:53 AM 57.0 °F 51.1 °F 81% 29.99 in 8.0 mi Calm Calm - N/A   Mostly Cloudy
8:00 AM 57.2 °F 51.8 °F 82% 29.98 in 7.0 mi Calm Calm - N/A   Mostly Cloudy
8:53 AM 62.1 °F 55.0 °F 78% 29.96 in 6.0 mi ESE 6.9 mph - N/A   Haze
9:00 AM 62.6 °F 55.4 °F 77% 29.97 in 7.0 mi ESE 5.8 mph - N/A   Scattered Clouds
9:53 AM 66.0 °F 55.0 °F 68% 29.96 in 9.0 mi East 8.1 mph - N/A   Scattered Clouds
10:53 AM 66.0 °F 55.0 °F 68% 29.97 in 10.0 mi Variable 6.9 mph - N/A   Clear
11:53 AM 66.9 °F 54.0 °F 63% 29.94 in 10.0 mi South 8.1 mph - N/A   Clear
12:53 PM 66.9 °F 54.0 °F 63% 29.92 in 10.0 mi South 8.1 mph - N/A   Clear
1:53 PM 70.0 °F 53.1 °F 55% 29.87 in 10.0 mi SSW 8.1 mph - N/A   Clear
2:53 PM 73.9 °F 42.1 °F 32% 29.84 in 10.0 mi West 11.5 mph - N/A   Clear
3:53 PM 73.9 °F 43.0 °F 33% 29.81 in 10.0 mi WNW 11.5 mph - N/A   Clear
4:53 PM 73.9 °F 39.9 °F 29% 29.80 in 10.0 mi West 9.2 mph - N/A   Clear
5:53 PM 68.0 °F 46.0 °F 45% 29.79 in 10.0 mi South 6.9 mph - N/A   Clear
6:53 PM 66.0 °F 46.9 °F 50% 29.80 in 10.0 mi West 10.4 mph - N/A   Clear
7:53 PM 63.0 °F 48.9 °F 60% 29.80 in 10.0 mi WNW 10.4 mph - N/A   Clear
8:53 PM 61.0 °F 48.9 °F 64% 29.80 in 10.0 mi NW 4.6 mph - N/A   Clear
9:53 PM 60.1 °F 50.0 °F 69% 29.80 in 9.0 mi South 4.6 mph - N/A   Clear
10:28 PM 60.8 °F 51.8 °F 72% 29.81 in 8.0 mi SE 3.5 mph - N/A   Mostly Cloudy
10:53 PM 60.1 °F 52.0 °F 75% 29.81 in 8.0 mi ESE 4.6 mph - N/A   Mostly Cloudy
11:53 PM 59.0 °F 52.0 °F 78% 29.81 in 8.0 mi East 6.9 mph - N/A   Mostly Cloudy